Regional Weather Roundup
Issued by NWS

Home | Current Version | Previous Version | Text Only | Print | Product List | Glossary Off
Versions: 1 2 3 4 5 6 7 8 9 10 11 12 13 14 15 16 17 18 19 20 21 22 23 24 25 26 27 28 29 30 31 32 33 34 35 36 37 38 39 40 41 42 43 44 45 46 47 48 49 50

000
ASUS45 KABQ 060201
RWRNM
NEW MEXICO REGIONAL WEATHER ROUNDUP
NATIONAL WEATHER SERVICE ALBUQUERQUE NM
700 PM MST FRI FEB 05 2016

NOTE: "FAIR" MEANS FEW OR NO CLOUDS BELOW 12,000 FEET AGL WITH NO
       SIGNIFICANT WEATHER OR OBSTRUCTIONS TO VISION.

      THIS PRODUCT IS RELEASED AS TWO VERSIONS.  ONE VERSION NEAR
      THE TOP OF THE HOUR CONTAINING PRELIMINARY DATA FROM ALBUQUERQUE
      AND OTHER STATIONS.  A FINAL VERSION WITH ADDITIONAL DATA IS
      ISSUED ABOUT 10 MINUTES AFTER THE HOUR.

NMZ501-503-504-510>518-060300-
NORTHWEST PLATEAU/NORTHCENTRAL MOUNTAINS

CITY           SKY/WX    TMP DP  RH WIND       PRES   REMARKS
FARMINGTON     CLEAR     29  13  51 W14       30.41R WCI  18
SANTA FE       CLEAR     26  11  52 NW5       30.36R WCI  20
TAOS           CLOUDY    21   3  45 N6        30.37R WCI  14

$$
NMZ402-403-502-505>509-060300-
WESTCENTRAL MOUNTAINS/SOUTHWEST MOUNTAINS

CITY           SKY/WX    TMP DP  RH WIND       PRES   REMARKS
GALLUP         CLEAR     26  10  50 E3        30.43R
GRANTS         CLEAR     19   4  52 NW6       30.43R WCI  11
SILVER CITY      N/A     39   0  19 N6        30.40R WCI  35

$$
NMZ407-409-411-412-060300-
SOUTHERN DESERTS

CITY           SKY/WX    TMP DP  RH WIND       PRES   REMARKS
DEMING         CLEAR     40   3  21 E6        30.38R
HOLLOMAN AFB   CLEAR     36   2  24 NW12      30.36R WCI  28
ALAMOGORDO     CLEAR     39   1  20 N9        30.38R WCI  33
T OR C         CLEAR     41  -2  16 N6        30.38R

$$
NMZ519>523-060300-
CENTRAL VALLEYS/CENTRAL HIGHLANDS

CITY           SKY/WX    TMP DP  RH WIND       PRES   REMARKS
ALBUQUERQUE    CLEAR     37   6  27 N10G18    30.40R WCI  30
DOUBLE EAGLE   CLEAR     28  10  47 NW13      30.40R WCI  18
MORIARTY ARPT  FAIR      25  11  54 NW8       30.38R WCI  16
CLINES CORNERS CLEAR     23  10  57 NW14      30.32R WCI  11
BELEN          FAIR      27  -2  29 N7        30.40R WCI  19
SOCORRO        NOT AVBL

$$
NMZ524>526-539-540-060300-
SOUTHCENTRAL MOUNTAINS

CITY           SKY/WX    TMP DP  RH WIND       PRES   REMARKS
RUIDOSO          N/A     28   0  29 NW7       30.36S WCI  21

$$
NMZ527>531-060300-
NORTHEAST HIGHLANDS/NORTHEAST PLAINS

CITY           SKY/WX    TMP DP  RH WIND       PRES   REMARKS
LAS VEGAS      CLEAR     25   2  37 NW9       30.31R WCI  15
RATON          CLEAR     25  12  58 N7        30.29R WCI  17
CLAYTON        CLEAR     23  14  68 W8        30.32R WCI  14

$$
NMZ532>537-060300-
EASTCENTRAL PLAINS

CITY           SKY/WX    TMP DP  RH WIND       PRES   REMARKS
TUCUMCARI      CLEAR     26  12  55 N5        30.35R WCI  20
CANNON AFB     NOT AVBL
CLOVIS AIRPORT CLEAR     28  14  54 N10       30.35R WCI  19

$$
NMZ028-029-538-060300-
SOUTHEAST PLAINS

CITY           SKY/WX    TMP DP  RH WIND       PRES   REMARKS
ROSWELL        CLEAR     39  10  30 N6        30.35R WCI  35
ARTESIA        CLEAR     36  10  35 N9        30.36R WCI  29
CARLSBAD       CLEAR     38  11  32 N9        30.35R WCI  31
HOBBS          CLEAR     37  16  41 N7        30.36R WCI  32


$$



USA.gov is the U.S. government's official web portal to all federal, state and local government web resources and services.